| time (UTC) | temp F | wind direction | speed MPH | gust MPH | rain 1hr in | rain 24hr in | rain mn in | humidity % | barometer mb |
| 20260505164830 | 87 | 1 | 2.0 | 10.0 | 0.00 | 0.00 | 0.00 | 67 | 1009.0 |
| 20260505164549 | 87 | 0 | 0.0 | 6.0 | 0.00 | 0.00 | 0.00 | 67 | 1009.4 |
| 20260505164329 | 87 | 206 | 0.0 | 7.0 | 0.00 | 0.00 | 0.00 | 69 | 1009.1 |
| 20260505163829 | 87 | 307 | 1.0 | 7.0 | 0.00 | 0.00 | 0.00 | 68 | 1009.2 |
| 20260505163328 | 86 | 52 | 0.0 | 8.0 | 0.00 | 0.00 | 0.00 | 69 | 1009.2 |
| 20260505163102 | 86 | 322 | 1.0 | 11.0 | 0.00 | 0.00 | 0.00 | 68 | 1009.5 |
| 20260505163052 | 87 | 229 | 1.0 | 9.0 | 0.00 | 0.00 | 0.00 | 70 | 1009.2 |
| 20260505162816 | 86 | 182 | 0.0 | 11.0 | 0.00 | 0.00 | 0.00 | 71 | 1009.3 |
| 20260505161819 | 86 | 184 | 2.0 | 8.0 | 0.00 | 0.00 | 0.00 | 70 | 1009.4 |
| 20260505161556 | 86 | 0 | 2.0 | 12.0 | 0.00 | 0.00 | 0.00 | 69 | 1009.6 |
| 20260505161317 | 86 | 256 | 2.0 | 12.0 | 0.00 | 0.00 | 0.00 | 69 | 1009.4 |
| 20260505160816 | 86 | 77 | 3.0 | 12.0 | 0.00 | 0.00 | 0.00 | 70 | 1009.4 |
| 20260505160316 | 86 | 311 | 2.0 | 11.0 | 0.00 | 0.00 | 0.00 | 70 | 1009.5 |
| 20260505153106 | 83 | 278 | 1.0 | 10.0 | 0.00 | 0.00 | 0.00 | 74 | 1009.9 |
| 20260505152804 | 84 | 204 | 2.0 | 8.0 | 0.00 | 0.00 | 0.00 | 75 | 1009.5 |
| 20260505152305 | 84 | 214 | 1.0 | 12.0 | 0.00 | 0.00 | 0.00 | 74 | 1009.5 |
| 20260505151803 | 84 | 346 | 3.0 | 12.0 | 0.00 | 0.00 | 0.00 | 75 | 1009.5 |
| 20260505151555 | 83 | 0 | 2.0 | 12.0 | 0.00 | 0.00 | 0.00 | 74 | 1009.8 |
| 20260505151303 | 83 | 201 | 1.0 | 11.0 | 0.00 | 0.00 | 0.00 | 75 | 1009.6 |
| 20260505150803 | 84 | 321 | 1.0 | 11.0 | 0.00 | 0.00 | 0.00 | 75 | 1009.4 |
| 20260505150309 | 83 | 86 | 0.0 | 10.0 | 0.00 | 0.00 | 0.00 | 76 | 1009.6 |
| 20260505150112 | 83 | 0 | 1.0 | 10.0 | 0.00 | 0.00 | 0.00 | 76 | 1010.0 |
| 20260505140302 | 80 | 182 | 2.0 | 9.0 | 0.00 | 0.00 | 0.00 | 82 | 1009.5 |
| 20260505140104 | 79 | 221 | 1.0 | 7.0 | 0.00 | 0.00 | 0.00 | 82 | 1009.9 |
| 20260505124802 | 77 | 293 | 1.0 | 6.0 | 0.00 | 0.00 | 0.00 | 88 | 1009.5 |
| 20260505124548 | 76 | 0 | 0.0 | 5.0 | 0.00 | 0.00 | 0.00 | 88 | 1009.8 |
| 20260505124302 | 77 | 326 | 0.0 | 6.0 | 0.00 | 0.00 | 0.00 | 88 | 1009.4 |
| 20260505123802 | 77 | 105 | 0.0 | 7.0 | 0.00 | 0.00 | 0.00 | 88 | 1009.4 |
| 20260505123302 | 76 | 113 | 1.0 | 7.0 | 0.00 | 0.00 | 0.00 | 88 | 1009.3 |
| 20260505123106 | 76 | 215 | 0.0 | 5.0 | 0.00 | 0.00 | 0.00 | 88 | 1009.6 |
| 20260505123028 | 76 | 245 | 0.0 | 6.0 | 0.00 | 0.00 | 0.00 | 88 | 1009.4 |
| 20260505122305 | 76 | 222 | 0.0 | 6.0 | 0.00 | 0.00 | 0.00 | 88 | 1009.3 |
| 20260505122050 | 76 | 295 | 0.0 | 4.0 | 0.00 | 0.00 | 0.00 | 88 | 1009.3 |
| 20260505121550 | 76 | 0 | 0.0 | 3.0 | 0.00 | 0.00 | 0.00 | 87 | 1009.7 |
| 20260505121302 | 76 | 246 | 0.0 | 5.0 | 0.00 | 0.00 | 0.00 | 88 | 1009.4 |
| 20260505120801 | 76 | 10 | 0.0 | 6.0 | 0.00 | 0.00 | 0.00 | 87 | 1009.2 |
| 20260505120301 | 76 | 323 | 1.0 | 6.0 | 0.00 | 0.00 | 0.00 | 87 | 1009.2 |
| 20260505120053 | 76 | 300 | 0.0 | 7.0 | 0.00 | 0.00 | 0.00 | 87 | 1009.4 |
| 20260505115802 | 77 | 4 | 1.0 | 6.0 | 0.00 | 0.00 | 0.00 | 87 | 1009.1 |
| 20260505115304 | 77 | 151 | 1.0 | 7.0 | 0.00 | 0.00 | 0.00 | 87 | 1009.0 |
| 20260505114803 | 77 | 311 | 1.0 | 8.0 | 0.00 | 0.00 | 0.00 | 87 | 1009.1 |
| 20260505114558 | 76 | 183 | 0.0 | 10.0 | 0.00 | 0.00 | 0.00 | 86 | 1009.5 |
| 20260505114302 | 77 | 285 | 0.0 | 10.0 | 0.00 | 0.00 | 0.00 | 87 | 1009.1 |
| 20260505113802 | 77 | 133 | 2.0 | 10.0 | 0.00 | 0.00 | 0.00 | 87 | 1009.1 |
| 20260505113302 | 77 | 205 | 1.0 | 7.0 | 0.00 | 0.00 | 0.00 | 87 | 1009.2 |
| 20260505113249 | 77 | 311 | 2.0 | 9.0 | 0.00 | 0.00 | 0.00 | 87 | 1009.0 |
| 20260505113052 | 76 | 297 | 1.0 | 8.0 | 0.00 | 0.00 | 0.00 | 87 | 1009.5 |
| 20260505112305 | 77 | 11 | 0.0 | 9.0 | 0.00 | 0.00 | 0.00 | 87 | 1009.1 |
| 20260505111804 | 77 | 71 | 2.0 | 7.0 | 0.00 | 0.00 | 0.00 | 87 | 1009.0 |
| 20260505111550 | 77 | 171 | 2.0 | 8.0 | 0.00 | 0.00 | 0.00 | 87 | 1009.1 |
| 20260505111545 | 76 | 89 | 1.0 | 8.0 | 0.00 | 0.00 | 0.00 | 87 | 1009.3 |
| 20260505110803 | 77 | 346 | 1.0 | 8.0 | 0.00 | 0.00 | 0.00 | 87 | 1009.1 |
| 20260505110316 | 76 | 282 | 1.0 | 6.0 | 0.00 | 0.00 | 0.00 | 87 | 1009.1 |
| 20260505101804 | 76 | 173 | 0.0 | 5.0 | 0.00 | 0.00 | 0.00 | 88 | 1009.2 |
| 20260505101550 | 76 | 0 | 0.0 | 7.0 | 0.00 | 0.00 | 0.00 | 87 | 1009.4 |
| 20260505101304 | 76 | 297 | 0.0 | 8.0 | 0.00 | 0.00 | 0.00 | 88 | 1009.1 |
| 20260505100803 | 76 | 10 | 0.0 | 8.0 | 0.00 | 0.00 | 0.00 | 87 | 1009.1 |
| 20260505100303 | 76 | 87 | 0.0 | 8.0 | 0.00 | 0.00 | 0.00 | 87 | 1009.0 |
| 20260505100054 | 76 | 346 | 0.0 | 11.0 | 0.00 | 0.00 | 0.00 | 87 | 1009.3 |
| 20260505095802 | 76 | 334 | 0.0 | 11.0 | 0.00 | 0.00 | 0.00 | 87 | 1009.0 |
| 20260505095304 | 76 | 189 | 1.0 | 11.0 | 0.00 | 0.00 | 0.00 | 87 | 1008.9 |
| 20260505094803 | 76 | 240 | 0.0 | 7.0 | 0.00 | 0.00 | 0.00 | 87 | 1009.1 |
| 20260505094552 | 76 | 0 | 1.0 | 7.0 | 0.00 | 0.00 | 0.00 | 87 | 1009.3 |
| 20260505094521 | 76 | 50 | 0.0 | 7.0 | 0.00 | 0.00 | 0.00 | 88 | 1008.9 |
| 20260505093802 | 76 | 271 | 0.0 | 6.0 | 0.00 | 0.00 | 0.00 | 87 | 1009.0 |
| 20260505093302 | 76 | 254 | 1.0 | 7.0 | 0.00 | 0.00 | 0.00 | 87 | 1008.9 |
| 20260505093050 | 76 | 52 | 0.0 | 7.0 | 0.00 | 0.00 | 0.00 | 87 | 1009.2 |
| 20260505092801 | 76 | 231 | 1.0 | 7.0 | 0.00 | 0.00 | 0.00 | 87 | 1009.0 |
| 20260505092304 | 76 | 277 | 2.0 | 8.0 | 0.00 | 0.00 | 0.00 | 87 | 1009.0 |
| 20260505091804 | 76 | 304 | 0.0 | 9.0 | 0.00 | 0.00 | 0.00 | 87 | 1009.1 |
| 20260505091553 | 76 | 0 | 0.0 | 8.0 | 0.00 | 0.00 | 0.00 | 87 | 1009.4 |
| 20260505091523 | 76 | 146 | 2.0 | 9.0 | 0.00 | 0.00 | 0.00 | 87 | 1009.2 |
| 20260505090804 | 76 | 286 | 1.0 | 6.0 | 0.00 | 0.00 | 0.00 | 87 | 1009.1 |
| 20260505090303 | 76 | 341 | 1.0 | 6.0 | 0.00 | 0.00 | 0.00 | 87 | 1009.1 |
| 20260505090106 | 76 | 0 | 0.0 | 7.0 | 0.00 | 0.00 | 0.00 | 87 | 1009.4 |
| 20260505085803 | 76 | 252 | 0.0 | 5.0 | 0.00 | 0.00 | 0.00 | 87 | 1009.1 |
| 20260505085304 | 76 | 198 | 1.0 | 5.0 | 0.00 | 0.00 | 0.00 | 87 | 1009.3 |
| 20260505084803 | 76 | 136 | 1.0 | 8.0 | 0.00 | 0.00 | 0.00 | 87 | 1009.4 |
| 20260505084548 | 76 | 0 | 0.0 | 8.0 | 0.00 | 0.00 | 0.00 | 87 | 1009.7 |
| 20260505084304 | 76 | 229 | 0.0 | 8.0 | 0.00 | 0.00 | 0.00 | 87 | 1009.4 |
| 20260505083803 | 76 | 202 | 0.0 | 4.0 | 0.00 | 0.00 | 0.00 | 87 | 1009.5 |
| 20260505083303 | 76 | 179 | 0.0 | 4.0 | 0.00 | 0.00 | 0.00 | 87 | 1009.6 |
| 20260505083105 | 76 | 0 | 0.0 | 5.0 | 0.00 | 0.00 | 0.00 | 87 | 1010.0 |
| 20260505082804 | 76 | 356 | 0.0 | 4.0 | 0.00 | 0.00 | 0.00 | 87 | 1009.6 |
| 20260505082549 | 76 | 262 | 0.0 | 5.0 | 0.00 | 0.00 | 0.00 | 87 | 1009.8 |
| 20260505081804 | 76 | 207 | 1.0 | 5.0 | 0.00 | 0.00 | 0.00 | 87 | 1009.8 |
| 20260505081554 | 76 | 0 | 0.0 | 6.0 | 0.00 | 0.00 | 0.00 | 86 | 1010.1 |
| 20260505081525 | 76 | 191 | 0.0 | 5.0 | 0.00 | 0.00 | 0.00 | 87 | 1009.9 |
| 20260505080803 | 76 | 68 | 0.0 | 5.0 | 0.00 | 0.00 | 0.00 | 87 | 1009.8 |
| 20260505080303 | 76 | 257 | 0.0 | 6.0 | 0.00 | 0.00 | 0.00 | 87 | 1010.0 |
| 20260505080059 | 76 | 0 | 0.0 | 9.0 | 0.00 | 0.00 | 0.00 | 87 | 1010.4 |
| 20260505075803 | 76 | 259 | 0.0 | 7.0 | 0.00 | 0.00 | 0.00 | 87 | 1010.1 |
| 20260505075304 | 76 | 288 | 1.0 | 7.0 | 0.00 | 0.00 | 0.00 | 87 | 1010.0 |
| 20260505074803 | 76 | 155 | 0.0 | 3.0 | 0.00 | 0.00 | 0.00 | 87 | 1010.1 |
| 20260505074552 | 76 | 269 | 0.0 | 8.0 | 0.00 | 0.00 | 0.00 | 87 | 1010.4 |
| 20260505074524 | 76 | 233 | 0.0 | 9.0 | 0.00 | 0.00 | 0.00 | 87 | 1010.0 |
| 20260505073803 | 76 | 229 | 1.0 | 9.0 | 0.00 | 0.00 | 0.00 | 87 | 1010.1 |
| 20260505073304 | 76 | 231 | 0.0 | 4.0 | 0.00 | 0.00 | 0.00 | 87 | 1010.0 |
| 20260505073058 | 76 | 0 | 0.0 | 5.0 | 0.00 | 0.00 | 0.00 | 86 | 1010.2 |
| 20260505072804 | 76 | 282 | 0.0 | 4.0 | 0.00 | 0.00 | 0.00 | 87 | 1009.9 |
| 20260505072305 | 76 | 255 | 1.0 | 7.0 | 0.00 | 0.00 | 0.00 | 87 | 1010.0 |
| 20260505072051 | 76 | 300 | 0.0 | 7.0 | 0.00 | 0.00 | 0.00 | 87 | 1010.3 |
| 20260505071548 | 76 | 0 | 0.0 | 4.0 | 0.00 | 0.00 | 0.00 | 86 | 1010.5 |
| 20260505071525 | 76 | 20 | 0.0 | 4.0 | 0.00 | 0.00 | 0.00 | 87 | 1010.3 |
| 20260505070803 | 76 | 231 | 0.0 | 4.0 | 0.00 | 0.00 | 0.00 | 87 | 1010.5 |
| 20260505070303 | 76 | 323 | 0.0 | 4.0 | 0.00 | 0.00 | 0.00 | 87 | 1010.7 |
| 20260505070054 | 75 | 0 | 0.0 | 6.0 | 0.00 | 0.00 | 0.00 | 86 | 1011.0 |
| 20260505065803 | 76 | 129 | 0.0 | 4.0 | 0.00 | 0.00 | 0.00 | 87 | 1010.8 |
| 20260505065304 | 76 | 335 | 1.0 | 5.0 | 0.00 | 0.00 | 0.00 | 87 | 1010.8 |
| 20260505064807 | 76 | 101 | 0.0 | 12.0 | 0.00 | 0.00 | 0.00 | 87 | 1010.8 |
| 20260505064552 | 75 | 0 | 1.0 | 12.0 | 0.00 | 0.00 | 0.00 | 86 | 1011.2 |
| 20260505064522 | 76 | 329 | 2.0 | 12.0 | 0.00 | 0.00 | 0.00 | 87 | 1010.9 |
| 20260505063803 | 76 | 162 | 1.0 | 7.0 | 0.00 | 0.00 | 0.00 | 87 | 1011.0 |
| 20260505063303 | 76 | 120 | 2.0 | 7.0 | 0.00 | 0.00 | 0.00 | 87 | 1011.0 |
| 20260505063048 | 75 | 0 | 0.0 | 7.0 | 0.00 | 0.00 | 0.00 | 86 | 1011.3 |
| 20260505062801 | 76 | 251 | 1.0 | 7.0 | 0.00 | 0.00 | 0.00 | 87 | 1010.9 |
| 20260505062301 | 76 | 277 | 2.0 | 7.0 | 0.00 | 0.00 | 0.00 | 86 | 1010.9 |
| 20260505061803 | 76 | 184 | 0.0 | 8.0 | 0.00 | 0.00 | 0.00 | 86 | 1011.0 |
| 20260505061550 | 75 | 20 | 0.0 | 8.0 | 0.00 | 0.00 | 0.00 | 86 | 1011.4 |
| 20260505061302 | 76 | 352 | 1.0 | 8.0 | 0.00 | 0.00 | 0.00 | 86 | 1011.1 |
| 20260505060802 | 76 | 260 | 0.0 | 6.0 | 0.00 | 0.00 | 0.00 | 86 | 1011.2 |
| 20260505060302 | 76 | 340 | 0.0 | 6.0 | 0.00 | 0.00 | 0.00 | 86 | 1011.3 |
| 20260505060057 | 75 | 0 | 0.0 | 6.0 | 0.00 | 0.00 | 0.00 | 86 | 1011.6 |
| 20260505055802 | 76 | 257 | 0.0 | 6.0 | 0.00 | 0.00 | 0.00 | 86 | 1011.3 |
| 20260505055303 | 75 | 134 | 1.0 | 6.0 | 0.00 | 0.00 | 0.00 | 86 | 1011.3 |
| 20260505054804 | 75 | 106 | 0.0 | 6.0 | 0.00 | 0.00 | 0.00 | 86 | 1011.4 |
| 20260505054547 | 75 | 0 | 0.0 | 8.0 | 0.00 | 0.00 | 0.00 | 85 | 1011.8 |
| 20260505054302 | 75 | 349 | 0.0 | 6.0 | 0.00 | 0.00 | 0.00 | 86 | 1011.4 |
| 20260505053803 | 75 | 76 | 1.0 | 6.0 | 0.00 | 0.00 | 0.00 | 86 | 1011.6 |
| 20260505053302 | 75 | 234 | 1.0 | 6.0 | 0.00 | 0.00 | 0.00 | 86 | 1011.6 |
| 20260505053053 | 75 | 0 | 0.0 | 4.0 | 0.00 | 0.00 | 0.00 | 85 | 1011.9 |
| 20260505052802 | 76 | 206 | 0.0 | 4.0 | 0.00 | 0.00 | 0.00 | 85 | 1011.7 |
| 20260505052304 | 76 | 132 | 0.0 | 5.0 | 0.00 | 0.00 | 0.00 | 85 | 1011.8 |
| 20260505051803 | 76 | 322 | 1.0 | 6.0 | 0.00 | 0.00 | 0.00 | 85 | 1011.8 |
| 20260505051752 | 76 | 294 | 1.0 | 6.0 | 0.00 | 0.00 | 0.00 | 85 | 1011.8 |
| 20260505051551 | 75 | 0 | 0.0 | 7.0 | 0.00 | 0.00 | 0.00 | 85 | 1012.1 |
| 20260505050803 | 76 | 176 | 0.0 | 6.0 | 0.00 | 0.00 | 0.00 | 85 | 1011.7 |
| 20260505050303 | 76 | 267 | 0.0 | 3.0 | 0.00 | 0.00 | 0.00 | 85 | 1011.9 |
| 20260505050122 | 75 | 0 | 0.0 | 8.0 | 0.00 | 0.00 | 0.00 | 84 | 1012.1 |
| 20260505041604 | 75 | 0 | 0.0 | 9.0 | 0.00 | 0.00 | 0.00 | 82 | 1012.2 |
| 20260505041320 | 76 | 290 | 1.0 | 9.0 | 0.00 | 0.00 | 0.00 | 83 | 1012.1 |
| 20260505041021 | 76 | 355 | 0.0 | 9.0 | 0.00 | 0.00 | 0.00 | 82 | 1012.0 |
| 20260505040327 | 76 | 295 | 0.0 | 6.0 | 0.00 | 0.00 | 0.00 | 82 | 1012.1 |
| 20260505040057 | 75 | 0 | 0.0 | 6.0 | 0.00 | 0.00 | 0.00 | 82 | 1012.4 |
| 20260505035802 | 76 | 74 | 0.0 | 6.0 | 0.00 | 0.00 | 0.00 | 82 | 1012.2 |
| 20260505035304 | 76 | 257 | 0.0 | 6.0 | 0.00 | 0.00 | 0.00 | 82 | 1012.3 |
| 20260505035023 | 76 | 278 | 0.0 | 6.0 | 0.00 | 0.00 | 0.00 | 81 | 1012.2 |
| 20260505034551 | 75 | 0 | 0.0 | 6.0 | 0.00 | 0.00 | 0.00 | 81 | 1012.3 |
| 20260505034303 | 76 | 274 | 0.0 | 6.0 | 0.00 | 0.00 | 0.00 | 81 | 1012.2 |
| 20260505033802 | 76 | 130 | 1.0 | 6.0 | 0.00 | 0.00 | 0.00 | 81 | 1012.0 |
| 20260505033323 | 76 | 284 | 0.0 | 7.0 | 0.00 | 0.00 | 0.00 | 81 | 1012.1 |
| 20260505033051 | 76 | 231 | 0.0 | 6.0 | 0.00 | 0.00 | 0.00 | 80 | 1012.4 |
| 20260505032802 | 76 | 347 | 1.0 | 7.0 | 0.00 | 0.00 | 0.00 | 81 | 1012.1 |
| 20260505032304 | 76 | 110 | 0.0 | 4.0 | 0.00 | 0.00 | 0.00 | 80 | 1012.0 |
| 20260505032029 | 77 | 267 | 0.0 | 9.0 | 0.00 | 0.00 | 0.00 | 80 | 1012.0 |
| 20260505031550 | 76 | 256 | 0.0 | 8.0 | 0.00 | 0.00 | 0.00 | 79 | 1012.2 |
| 20260505031303 | 77 | 105 | 1.0 | 9.0 | 0.00 | 0.00 | 0.00 | 79 | 1012.0 |
| 20260505030803 | 77 | 218 | 0.0 | 6.0 | 0.00 | 0.00 | 0.00 | 79 | 1012.3 |
| 20260505030315 | 77 | 150 | 0.0 | 6.0 | 0.00 | 0.00 | 0.00 | 79 | 1012.1 |
| 20260505030048 | 76 | 0 | 0.0 | 10.0 | 0.00 | 0.00 | 0.00 | 78 | 1012.3 |
| 20260505030021 | 77 | 259 | 1.0 | 7.0 | 0.00 | 0.00 | 0.00 | 79 | 1012.1 |
| 20260505025304 | 77 | 330 | 0.0 | 8.0 | 0.00 | 0.00 | 0.00 | 78 | 1012.0 |
| 20260505025028 | 77 | 218 | 0.0 | 11.0 | 0.00 | 0.00 | 0.00 | 78 | 1011.9 |
| 20260505024551 | 77 | 0 | 0.0 | 10.0 | 0.00 | 0.00 | 0.00 | 78 | 1012.2 |
| 20260505024301 | 77 | 255 | 0.0 | 11.0 | 0.00 | 0.00 | 0.00 | 78 | 1011.9 |
| 20260505023801 | 77 | 283 | 1.0 | 8.0 | 0.00 | 0.00 | 0.00 | 78 | 1011.8 |
| 20260505023304 | 77 | 248 | 0.0 | 9.0 | 0.00 | 0.00 | 0.00 | 78 | 1011.7 |
| 20260505023054 | 77 | 0 | 0.0 | 9.0 | 0.00 | 0.00 | 0.00 | 77 | 1011.7 |
| 20260505022800 | 77 | 250 | 0.0 | 9.0 | 0.00 | 0.00 | 0.00 | 78 | 1011.6 |
| 20260505022301 | 78 | 302 | 0.0 | 12.0 | 0.00 | 0.00 | 0.00 | 78 | 1011.7 |
| 20260505021800 | 78 | 162 | 0.0 | 12.0 | 0.00 | 0.00 | 0.00 | 77 | 1011.7 |
| 20260505021552 | 77 | 0 | 1.0 | 11.0 | 0.00 | 0.00 | 0.00 | 77 | 1011.7 |
| 20260505021302 | 78 | 131 | 3.0 | 11.0 | 0.00 | 0.00 | 0.00 | 77 | 1011.4 |
| 20260505021027 | 78 | 252 | 0.0 | 10.0 | 0.00 | 0.00 | 0.00 | 78 | 1011.4 |
| 20260505020302 | 78 | 200 | 2.0 | 10.0 | 0.00 | 0.00 | 0.00 | 77 | 1011.4 |
| 20260505020045 | 77 | 0 | 0.0 | 9.0 | 0.00 | 0.00 | 0.00 | 77 | 1011.5 |
| 20260505020028 | 78 | 175 | 1.0 | 10.0 | 0.00 | 0.00 | 0.00 | 77 | 1011.2 |
| 20260505015525 | 78 | 187 | 1.0 | 5.0 | 0.00 | 0.00 | 0.00 | 77 | 1011.2 |
| 20260505014802 | 78 | 79 | 0.0 | 5.0 | 0.00 | 0.00 | 0.00 | 77 | 1011.1 |
| 20260505014605 | 77 | 0 | 0.0 | 7.0 | 0.00 | 0.00 | 0.00 | 76 | 1011.4 |
| 20260505014518 | 78 | 315 | 0.0 | 5.0 | 0.00 | 0.00 | 0.00 | 77 | 1011.0 |
| 20260505013802 | 78 | 210 | 2.0 | 9.0 | 0.00 | 0.00 | 0.00 | 77 | 1011.1 |
| 20260505013303 | 78 | 134 | 1.0 | 9.0 | 0.00 | 0.00 | 0.00 | 77 | 1011.1 |
| 20260505013050 | 77 | 0 | 0.0 | 5.0 | 0.00 | 0.00 | 0.00 | 76 | 1011.4 |
| 20260505012803 | 78 | 163 | 1.0 | 5.0 | 0.00 | 0.00 | 0.00 | 77 | 1011.0 |
| 20260505012304 | 78 | 15 | 1.0 | 5.0 | 0.00 | 0.00 | 0.00 | 76 | 1011.0 |
| 20260505011802 | 78 | 53 | 2.0 | 7.0 | 0.00 | 0.00 | 0.00 | 76 | 1011.0 |
| 20260505011548 | 78 | 93 | 0.0 | 11.0 | 0.00 | 0.00 | 0.00 | 75 | 1011.4 |
| 20260505011302 | 78 | 309 | 0.0 | 7.0 | 0.00 | 0.00 | 0.00 | 76 | 1011.0 |
| 20260505010802 | 78 | 333 | 1.0 | 8.0 | 0.00 | 0.00 | 0.00 | 75 | 1011.2 |
| 20260505010302 | 79 | 198 | 2.0 | 8.0 | 0.00 | 0.00 | 0.00 | 75 | 1011.2 |
| 20260505010049 | 78 | 211 | 1.0 | 9.0 | 0.00 | 0.00 | 0.00 | 74 | 1011.6 |
| 20260505005802 | 79 | 172 | 1.0 | 8.0 | 0.00 | 0.00 | 0.00 | 75 | 1011.2 |
| 20260505005303 | 79 | 237 | 2.0 | 8.0 | 0.00 | 0.00 | 0.00 | 74 | 1011.1 |
| 20260505004800 | 79 | 316 | 1.0 | 7.0 | 0.00 | 0.00 | 0.00 | 74 | 1011.1 |
| 20260505004552 | 79 | 0 | 1.0 | 10.0 | 0.00 | 0.00 | 0.00 | 73 | 1011.4 |
| 20260505004302 | 80 | 271 | 1.0 | 10.0 | 0.00 | 0.00 | 0.00 | 73 | 1011.2 |
| 20260505003801 | 80 | 266 | 2.0 | 10.0 | 0.00 | 0.00 | 0.00 | 73 | 1011.1 |
| 20260505003301 | 80 | 163 | 2.0 | 8.0 | 0.00 | 0.00 | 0.00 | 73 | 1011.1 |
| 20260505003049 | 80 | 92 | 1.0 | 8.0 | 0.00 | 0.00 | 0.00 | 72 | 1011.4 |
| 20260505002801 | 80 | 47 | 3.0 | 8.0 | 0.00 | 0.00 | 0.00 | 72 | 1011.1 |
| 20260505002303 | 81 | 195 | 2.0 | 10.0 | 0.00 | 0.00 | 0.00 | 72 | 1011.1 |
| 20260505002023 | 81 | 96 | 1.0 | 10.0 | 0.00 | 0.00 | 0.00 | 71 | 1011.1 |
| 20260505001611 | 81 | 82 | 2.0 | 10.0 | 0.00 | 0.00 | 0.00 | 70 | 1011.5 |
| 20260505001302 | 81 | 148 | 1.0 | 7.0 | 0.00 | 0.00 | 0.00 | 71 | 1011.2 |
| 20260505000802 | 81 | 316 | 2.0 | 9.0 | 0.00 | 0.00 | 0.00 | 70 | 1011.2 |
| 20260505000304 | 82 | 173 | 2.0 | 9.0 | 0.00 | 0.00 | 0.00 | 70 | 1011.3 |
| 20260505000115 | 81 | 0 | 1.0 | 8.0 | 0.00 | 0.00 | 0.00 | 69 | 1011.6 |
| 20260504235803 | 82 | 285 | 0.0 | 7.0 | 0.00 | 0.00 | 0.00 | 70 | 1011.3 |
| 20260504235520 | 82 | 180 | 1.0 | 7.0 | 0.00 | 0.00 | 0.00 | 69 | 1011.1 |
| 20260504234800 | 82 | 198 | 1.0 | 7.0 | 0.00 | 0.00 | 0.00 | 69 | 1011.3 |
| 20260504234606 | 82 | 56 | 1.0 | 9.0 | 0.00 | 0.00 | 0.00 | 68 | 1011.7 |
| 20260504234301 | 82 | 161 | 0.0 | 4.0 | 0.00 | 0.00 | 0.00 | 69 | 1011.3 |
| 20260504233802 | 82 | 248 | 0.0 | 5.0 | 0.00 | 0.00 | 0.00 | 68 | 1011.2 |
| 20260504233523 | 82 | 209 | 0.0 | 6.0 | 0.00 | 0.00 | 0.00 | 68 | 1011.2 |
| 20260504233059 | 82 | 0 | 1.0 | 8.0 | 0.00 | 0.00 | 0.00 | 68 | 1011.5 |
| 20260504232800 | 83 | 165 | 0.0 | 8.0 | 0.00 | 0.00 | 0.00 | 68 | 1011.2 |
| 20260504232303 | 83 | 236 | 2.0 | 10.0 | 0.00 | 0.00 | 0.00 | 68 | 1011.3 |
| 20260504231801 | 83 | 225 | 1.0 | 10.0 | 0.00 | 0.00 | 0.00 | 67 | 1011.3 |
| 20260504231550 | 82 | 0 | 1.0 | 8.0 | 0.00 | 0.00 | 0.00 | 67 | 1011.4 |
| 20260504231303 | 83 | 253 | 1.0 | 9.0 | 0.00 | 0.00 | 0.00 | 68 | 1011.2 |
| 20260504230803 | 83 | 162 | 0.0 | 9.0 | 0.00 | 0.00 | 0.00 | 68 | 1011.3 |
| 20260504230302 | 83 | 338 | 1.0 | 5.0 | 0.00 | 0.00 | 0.00 | 67 | 1011.3 |
| 20260504230051 | 83 | 0 | 0.0 | 7.0 | 0.00 | 0.00 | 0.00 | 66 | 1011.7 |
| 20260504225802 | 84 | 186 | 0.0 | 7.0 | 0.00 | 0.00 | 0.00 | 67 | 1011.4 |
| 20260504225322 | 84 | 259 | 0.0 | 5.0 | 0.00 | 0.00 | 0.00 | 67 | 1011.6 |
| 20260504225318 | 84 | 240 | 1.0 | 7.0 | 0.00 | 0.00 | 0.00 | 67 | 1011.6 |
| 20260504224555 | 83 | 0 | 1.0 | 6.0 | 0.00 | 0.00 | 0.00 | 66 | 1011.8 |
| 20260504224301 | 84 | 41 | 0.0 | 6.0 | 0.00 | 0.00 | 0.00 | 67 | 1011.6 |
| 20260504223801 | 83 | 23 | 1.0 | 8.0 | 0.00 | 0.00 | 0.00 | 67 | 1011.6 |
| 20260504223301 | 83 | 209 | 2.0 | 8.0 | 0.00 | 0.00 | 0.00 | 67 | 1011.7 |
| 20260504223051 | 83 | 0 | 0.0 | 7.0 | 0.00 | 0.00 | 0.00 | 67 | 1011.8 |
| 20260504222801 | 83 | 72 | 1.0 | 7.0 | 0.00 | 0.00 | 0.00 | 67 | 1011.6 |
| 20260504222301 | 83 | 202 | 1.0 | 7.0 | 0.00 | 0.00 | 0.00 | 68 | 1011.6 |
| 20260504221801 | 83 | 56 | 1.0 | 9.0 | 0.00 | 0.00 | 0.00 | 67 | 1011.4 |
| 20260504221549 | 83 | 0 | 0.0 | 9.0 | 0.00 | 0.00 | 0.00 | 67 | 1011.8 |
| 20260504221300 | 83 | 30 | 3.0 | 9.0 | 0.00 | 0.00 | 0.00 | 67 | 1011.2 |
| 20260504221033 | 83 | 176 | 1.0 | 7.0 | 0.00 | 0.00 | 0.00 | 67 | 1011.3 |
| 20260504220303 | 83 | 231 | 1.0 | 7.0 | 0.00 | 0.00 | 0.00 | 67 | 1011.7 |
| 20260504220058 | 83 | 127 | 2.0 | 11.0 | 0.00 | 0.00 | 0.00 | 67 | 1011.6 |
| 20260504220021 | 83 | 168 | 1.0 | 7.0 | 0.00 | 0.00 | 0.00 | 67 | 1011.7 |
| 20260504215304 | 83 | 194 | 1.0 | 7.0 | 0.00 | 0.00 | 0.00 | 67 | 1011.6 |
| 20260504214802 | 83 | 300 | 2.0 | 9.0 | 0.00 | 0.00 | 0.00 | 67 | 1011.7 |
| 20260504214548 | 83 | 51 | 2.0 | 12.0 | 0.00 | 0.00 | 0.00 | 67 | 1011.9 |
| 20260504214302 | 83 | 257 | 1.0 | 13.0 | 0.00 | 0.00 | 0.00 | 67 | 1011.7 |
| 20260504213802 | 83 | 139 | 1.0 | 13.0 | 0.00 | 0.00 | 0.00 | 66 | 1011.7 |
| 20260504213302 | 83 | 200 | 4.0 | 11.0 | 0.00 | 0.00 | 0.00 | 66 | 1011.7 |
| 20260504213111 | 83 | 264 | 3.0 | 10.0 | 0.00 | 0.00 | 0.00 | 66 | 1012.0 |
| 20260504212802 | 84 | 113 | 2.0 | 9.0 | 0.00 | 0.00 | 0.00 | 67 | 1011.8 |
| 20260504212529 | 84 | 4 | 2.0 | 10.0 | 0.00 | 0.00 | 0.00 | 66 | 1011.9 |
| 20260504211802 | 84 | 219 | 2.0 | 10.0 | 0.00 | 0.00 | 0.00 | 66 | 1011.9 |
| 20260504211559 | 83 | 93 | 3.0 | 10.0 | 0.00 | 0.00 | 0.00 | 65 | 1012.1 |
| 20260504211302 | 84 | 26 | 1.0 | 10.0 | 0.00 | 0.00 | 0.00 | 66 | 1011.9 |
| 20260504210802 | 83 | 261 | 3.0 | 10.0 | 0.00 | 0.00 | 0.00 | 66 | 1012.2 |
| 20260504210303 | 84 | 208 | 2.0 | 10.0 | 0.00 | 0.00 | 0.00 | 66 | 1012.1 |
| 20260504210050 | 83 | 238 | 1.0 | 7.0 | 0.00 | 0.00 | 0.00 | 65 | 1012.5 |
| 20260504205802 | 84 | 98 | 1.0 | 7.0 | 0.00 | 0.00 | 0.00 | 66 | 1012.3 |
| 20260504205303 | 84 | 283 | 0.0 | 9.0 | 0.00 | 0.00 | 0.00 | 66 | 1012.4 |
| 20260504204802 | 84 | 336 | 1.0 | 9.0 | 0.00 | 0.00 | 0.00 | 65 | 1012.4 |
| 20260504204557 | 83 | 0 | 1.0 | 9.0 | 0.00 | 0.00 | 0.00 | 66 | 1012.7 |
| 20260504204526 | 84 | 20 | 5.0 | 9.0 | 0.00 | 0.00 | 0.00 | 66 | 1012.6 |
| 20260504203802 | 84 | 274 | 1.0 | 7.0 | 0.00 | 0.00 | 0.00 | 65 | 1012.6 |
| 20260504203302 | 84 | 269 | 1.0 | 7.0 | 0.00 | 0.00 | 0.00 | 66 | 1012.6 |
| 20260504203102 | 83 | 0 | 1.0 | 7.0 | 0.00 | 0.00 | 0.00 | 65 | 1012.8 |
| 20260504202802 | 84 | 146 | 1.0 | 7.0 | 0.00 | 0.00 | 0.00 | 65 | 1012.7 |
| 20260504202749 | 84 | 262 | 1.0 | 9.0 | 0.00 | 0.00 | 0.00 | 65 | 1012.7 |
| 20260504202024 | 85 | 236 | 2.0 | 9.0 | 0.00 | 0.00 | 0.00 | 64 | 1013.0 |
| 20260504201551 | 84 | 103 | 1.0 | 9.0 | 0.00 | 0.00 | 0.00 | 63 | 1013.1 |
| 20260504201301 | 85 | 320 | 2.0 | 9.0 | 0.00 | 0.00 | 0.00 | 64 | 1013.1 |
| 20260504200803 | 85 | 353 | 1.0 | 7.0 | 0.00 | 0.00 | 0.00 | 64 | 1013.0 |
| 20260504200520 | 85 | 87 | 1.0 | 5.0 | 0.00 | 0.00 | 0.00 | 65 | 1013.1 |
| 20260504200051 | 84 | 0 | 1.0 | 7.0 | 0.00 | 0.00 | 0.00 | 65 | 1013.5 |
| 20260504195803 | 84 | 153 | 1.0 | 8.0 | 0.00 | 0.00 | 0.00 | 65 | 1013.3 |
| 20260504195304 | 83 | 310 | 2.0 | 8.0 | 0.00 | 0.00 | 0.00 | 66 | 1013.2 |
| 20260504194802 | 83 | 330 | 0.0 | 10.0 | 0.00 | 0.00 | 0.00 | 68 | 1013.2 |
| 20260504194559 | 82 | 0 | 0.0 | 10.0 | 0.00 | 0.00 | 0.00 | 67 | 1013.4 |
| 20260504194527 | 83 | 165 | 0.0 | 10.0 | 0.00 | 0.00 | 0.00 | 68 | 1013.3 |
| 20260504193803 | 83 | 172 | 0.0 | 6.0 | 0.00 | 0.00 | 0.00 | 69 | 1013.5 |
| 20260504193303 | 83 | 58 | 1.0 | 7.0 | 0.00 | 0.00 | 0.00 | 68 | 1013.5 |
| 20260504193056 | 82 | 0 | 0.0 | 7.0 | 0.00 | 0.00 | 0.00 | 67 | 1013.8 |
| 20260504192801 | 83 | 335 | 2.0 | 7.0 | 0.00 | 0.00 | 0.00 | 67 | 1013.4 |
| 20260504192301 | 83 | 65 | 0.0 | 4.0 | 0.00 | 0.00 | 0.00 | 67 | 1013.5 |
| 20260504192020 | 83 | 150 | 1.0 | 6.0 | 0.00 | 0.00 | 0.00 | 67 | 1013.5 |
| 20260504191547 | 82 | 0 | 0.0 | 9.0 | 0.00 | 0.00 | 0.00 | 67 | 1013.9 |
| 20260504191520 | 83 | 356 | 1.0 | 7.0 | 0.00 | 0.00 | 0.00 | 68 | 1013.7 |
| 20260504190803 | 82 | 19 | 1.0 | 9.0 | 0.00 | 0.00 | 0.00 | 67 | 1013.7 |
| 20260504190303 | 83 | 203 | 0.0 | 9.0 | 0.00 | 0.00 | 0.00 | 68 | 1013.7 |
| 20260504190114 | 82 | 294 | 0.0 | 8.0 | 0.00 | 0.00 | 0.00 | 67 | 1014.1 |
| 20260504185802 | 83 | 304 | 1.0 | 8.0 | 0.00 | 0.00 | 0.00 | 68 | 1013.8 |
| 20260504185524 | 83 | 289 | 1.0 | 8.0 | 0.00 | 0.00 | 0.00 | 67 | 1013.9 |
| 20260504184800 | 83 | 231 | 2.0 | 6.0 | 0.00 | 0.00 | 0.00 | 66 | 1013.8 |
| 20260504184559 | 82 | 77 | 0.0 | 6.0 | 0.00 | 0.00 | 0.00 | 66 | 1014.1 |
| 20260504184300 | 83 | 250 | 1.0 | 6.0 | 0.00 | 0.00 | 0.00 | 66 | 1013.9 |
| 20260504184019 | 83 | 251 | 2.0 | 10.0 | 0.00 | 0.00 | 0.00 | 67 | 1013.9 |
| 20260504183254 | 82 | 200 | 1.0 | 10.0 | 0.00 | 0.00 | 0.00 | 68 | 1014.0 |
| 20260504183049 | 82 | 0 | 0.0 | 11.0 | 0.00 | 0.00 | 0.00 | 67 | 1014.1 |
| 20260504182753 | 82 | 25 | 2.0 | 7.0 | 0.00 | 0.00 | 0.00 | 68 | 1013.9 |
| 20260504182249 | 82 | 72 | 2.0 | 12.0 | 0.00 | 0.00 | 0.00 | 68 | 1014.1 |
| 20260504181748 | 82 | 274 | 2.0 | 12.0 | 0.00 | 0.00 | 0.00 | 68 | 1014.2 |
| 20260504181550 | 82 | 77 | 0.0 | 10.0 | 0.00 | 0.00 | 0.00 | 68 | 1014.3 |
| 20260504181246 | 82 | 134 | 1.0 | 8.0 | 0.00 | 0.00 | 0.00 | 69 | 1014.2 |
| 20260504180745 | 82 | 264 | 1.0 | 12.0 | 0.00 | 0.00 | 0.00 | 68 | 1014.3 |
| 20260504180243 | 81 | 263 | 1.0 | 12.0 | 0.00 | 0.00 | 0.00 | 68 | 1014.3 |
| 20260504180049 | 81 | 0 | 1.0 | 11.0 | 0.00 | 0.00 | 0.00 | 68 | 1014.4 |
| 20260504175740 | 82 | 344 | 1.0 | 12.0 | 0.00 | 0.00 | 0.00 | 68 | 1014.3 |
| 20260504175241 | 82 | 338 | 2.0 | 7.0 | 0.00 | 0.00 | 0.00 | 68 | 1014.3 |
| 20260504174737 | 82 | 99 | 0.0 | 7.0 | 0.00 | 0.00 | 0.00 | 69 | 1014.4 |
| 20260504174551 | 81 | 0 | 0.0 | 9.0 | 0.00 | 0.00 | 0.00 | 69 | 1014.6 |
| 20260504174236 | 81 | 286 | 1.0 | 11.0 | 0.00 | 0.00 | 0.00 | 69 | 1014.5 |
| 20260504173736 | 81 | 311 | 1.0 | 11.0 | 0.00 | 0.00 | 0.00 | 69 | 1014.4 |
| 20260504173235 | 81 | 140 | 0.0 | 5.0 | 0.00 | 0.00 | 0.00 | 69 | 1014.4 |
| 20260504173054 | 81 | 0 | 0.0 | 8.0 | 0.00 | 0.00 | 0.00 | 69 | 1014.7 |
| 20260504172734 | 81 | 272 | 0.0 | 8.0 | 0.00 | 0.00 | 0.00 | 69 | 1014.7 |
| 20260504172234 | 81 | 219 | 1.0 | 8.0 | 0.00 | 0.00 | 0.00 | 69 | 1014.8 |
| 20260504171953 | 80 | 286 | 0.0 | 7.0 | 0.00 | 0.00 | 0.00 | 69 | 1015.0 |
| 20260504171551 | 80 | 0 | 0.0 | 12.0 | 0.00 | 0.00 | 0.00 | 69 | 1015.3 |
| 20260504171232 | 80 | 256 | 1.0 | 8.0 | 0.00 | 0.00 | 0.00 | 69 | 1015.1 |
| 20260504170730 | 81 | 293 | 1.0 | 8.0 | 0.00 | 0.00 | 0.00 | 68 | 1014.9 |
| 20260504170458 | 81 | 160 | 0.0 | 6.0 | 0.00 | 0.00 | 0.00 | 69 | 1015.0 |